Погода Марьина Горка

Погода Марьина Горка : погода сейчас, прогноз погоды и архив. Всё, что Вы хотите узнать о погоде Марьина Горка!

Хотите узнать прогноз погоды Марьина Горка? Тогда Вам сюда: Погода Марьина Горка

Поиск расширенной информации на нашем сайте:

Другие новости

Новости СМИ2

Главная страница сайта

Новости сайта

02.10.2013

Напоминаем, что на нашем новом сайте вы можете получить высокодетализированные прогнозы погоды по пунктам России, СНГ и мира (включающие важные для авиации метеовеличины, такие как направление и скорость ветра, видимость, явления погоды, количество и форма облачности, нижняя и верхняя граница облачности), а также ознакомиться с разнообразными материалами по авиационной метеорологии и подборкой полезных ссылок на эту тему.

Сайт Метеоцентр.Азия посвящён разработке технологий оптимизации авиаметеорологического обслуживания, включая проектирование и перспективное создание нескольких автоматизированных авиаметеорологических систем:
- система выпуска высокодетальных прогностических карт явлений погоды для нижнего воздушного пространства по России и ближнему зарубежью;
- система верификации прогнозов TAF (выпускаемых синоптиками официальных АМСГ РФ и ближнего зарубежья) и AUTOTAF (выпускаемых сайтом Метеоцентр.Азия) - выявление ошибок, онлайн-сопоставление с фактической погодой METAR, автоматическое внесение коррективов в прогнозы при резком отклонении фактической погоды от прогноза, подсчёт оправдываемости прогнозов по элементам и в целом;
- система обработки, анализа и отображения авиаметеорологической информации для применения провайдерами метеорологической информации.


Погода Марьина Горка - сегодня

Время (UTC), дата Ветер
(°,м/с) 
Видим.   Явления Облачность Т
(°С)
Тd
(°С)
f(%) Тe
(°С)
Pmin
(гПа)
dP
(гПа)
Po
(мм)
O2
(г/м3)
Тmin Tmax R s Состояние
почвы
18 25.05.17 290 (З) 20000 м    8/3 2000 м средняя, верхняя 
[Ac und|Ci fib]
+15.6 +5.5 51 +17  1013.1  0.4  744  283    +20.6       
21 25.05.17 тихо ()   17000 м    ясно 
+11 +6.4 73 +11  1013.8  0.3  744  287           
00 26.05.17 тихо ()   15000 м    ясно 
+9.5 +5.3 75 +10  1014.1  0.2  745  289           
03 26.05.17 тихо ()   12000 м    3/3 2000 м средняя 
[Ac und]
+8.1 +5.9 86 +8  1014.3  0.1  745  290           
06 26.05.17 280 (З) 20000 м    6/3 2000 м средняя, верхняя 
[Ac und|Ci fib]
+15.2 +9.8 70 +17  1013.8  745  282  +7.6         
09 26.05.17 290 (З) 20000 м    8/3 600 м верхняя 
[Cu med, cong|Ci fib]
+18.5 +8.7 53 +19  1013.6  0.1  745  280           
12 26.05.17 310 (СЗ) 23000 м    9/6 600 м средняя 
[Cu med, cong|Ac und]
+17.9 +8.5 54 +18  1013.4  -0.3  745  280           
15 26.05.17 340 (С) 25000 м    10/6 600 м средняя, верхняя 
[Cu med, cong|Ac und|Cs]
+17.5 +6.7 49 +18  1013.5  0.1  745  281           
18 26.05.17 тихо ()   23000 м    9/5 600 м средняя 
[Sc|Ac und]
+15.3 +6.6 56 +15  1014.6  0.9  745  283    +19.8       
21 26.05.17 350 (С) 17000 м    4/4 2000 м средняя 
[Ac und]
+12.2 +6.3 67 +13  1016  1.2  746  287           
00 27.05.17 тихо ()   14000 м    3/3 2000 м средняя 
[Ac und]
+9 +5.7 80 +9  1017.5  1.2  747  290           
09 27.05.17 340 (С) 25000 м    8/8 600 м 
[Cu med, cong]
+18.3 +3 36 +19  1019.5  0.7  749  282           
12 27.05.17 350 (С) 27000 м    8/8 600 м 
[Cu med, cong]
+19.3 +2.6 33 +20  1019.5  0.1  749  282           
15 27.05.17 300 (СЗ) 27000 м    8/5 600 м верхняя 
[Cu med, cong|Ci fib]
+20.7 +4.3 34 +21  1019  -0.4  749  280           
18 27.05.17 280 (З) 23000 м    9/6 2000 м средняя, верхняя 
[Ac und|Cs]
+16 +6.7 54 +17  1019.7  0.4  749  284    +21.2       
21 27.05.17 тихо ()   20000 м    4/0 2000 м верхняя 
[Cs]
+11.3 +5.6 68 +11  1021.2  1.1  750  289           
00 28.05.17 280 (З) 18000 м    ясно 
+11.1 +6.6 74 +12  1021.6  0.4  750  289           
09 28.05.17 300 (СЗ) 5-10{10}  22000 м    5/3 600 м верхняя 
[Cu med, cong|Ci fib]
+21.2 +9.8 48 +22  1019.8  -0.4  749  278           
15 28.05.17 280 (З) 30000 м    8/3 600 м верхняя 
[Cu med, cong|Ci fib]
+24.8 +9.9 39 +26  1018.3  -0.8  749  275           
18 28.05.17 190 (Ю) 25000 м    5/0 верхняя 
[Ci fib]
+22.2 +10.4 47 +24  1017.4  -1  748  277    +25.5       
21 28.05.17 200 (Ю) 20000 м    ясно 
+17.8 +10.2 61 +19  1017.4  -0.3  748  281           
00 29.05.17 210 (ЮЗ) 17000 м    3/3 2000 м средняя 
[Ac und]
+16 +10.1 68 +17  1016.2  -1.3  747  282           
09 29.05.17 250 (З) 7-12{12}  25000 м    9/3 600 м средняя, верхняя 
[Cu med, cong|Ac und|Ci fib]
+24.6 +9.7 39 +26  1010.3  -2.2  743  273           
12 29.05.17 240 (ЮЗ) 6-11{12}  26000 м    9/5 600 м средняя, верхняя 
[Cu med, cong|Ac und|Ci fib]
+25.7 +8.2 33 +26  1008.2  -2  741  272           
18 29.05.17 350 (С) 20000 м  {ливн. осадки}  8/8 600 м 
[Sc]
+20.1 +13.1 64 +26  1007.4  0.5  740  275    +26.5     
Время (UTC), дата Ветер
(°,м/с) 
Видим.   Явления Облачность Т
(°С)
Тd
(°С)
f(%) Тe
(°С)
Pmin
(гПа)
dP
(гПа)
Po
(мм)
O2
(г/м3)
Тmin Tmax R s Состояние
почвы

Для получения пояснительной информации подведите курсор к названию столбца.

ПОГОДА Марьина Горка - архив

Всё, что Вы хотите узнать о погоде Марьина Горка - удобно и подробно!

Выберите нужную дату (начиная с 1 января 2015* года) и нажмите кнопку "Найти".
Будут отображены архивные сводки погоды по пункту Марьина Горка, начиная с указанной даты.


Отображать данные в формате CSV (для использования в таблицах Excel)


Внимание! Наш архив погоды предназначен исключительно для личного некоммерческого использования в познавательных целях. Если Вам необходимы официальные справки о состоянии погоды (для производственных, юридических, коммерческих и т.п. целей), обращайтесь в органы Росгидромета.

*Примечание: данная дата относится к архиву по метеостанциям СССР (Россия, СНГ, Балтия).
Архив по метеостанциям Зарубежной Европы и Азии (кроме Китая) хранится 10 дней, по другим регионам земного шара (Китай, Африка, Америка, Австралия, Океания) - 1 день.

Марьина Горка - район местоположения метеостанции


Название, широта, долгота, высота метеостанции:
Марьина Горка 55.4°ш. 28.1°д. 177 м над ур. моря [Беларусь]

Дополнительная информация

В oтличие oт бoльшинства пoгoдных сайтoв мы публикуем пoдрoбную метеoинфoрмацию в детальнoм прoфессиoнальнoм фoрмате.

Характеристики температуры и влажнoсти вoздуха измеряются на высoте 2 м в тени вдали oт зданий и деревьев.
Скoрoсть ветра измеряется на высoте 10 м (на урoвне рoста челoвека скoрoсть ветра ниже в 1.5-2 раза). Если метеoстанция нахoдится в гoрoде или в лесу, тo скoрoсть ветра занижена на 2-4 м/с пo сравнению с oткрытым местoм. Скoрoсть ветра над акватoриями крупных рек и oзёр, а также на вершинах хoлмoв на 2-5 м/с выше, чем в oбычных услoвиях.
Атмoсфернoе давление в разных тoчках местнoсти мoжет значительнo oтличаться oт давления на метеoстанции, в зависимoсти oт услoвий рельефа (при пoдъёме на 10 м давление пoнижается примернo на 1 мм рт.ст.).